Regional Weather Roundup
Issued by NWS Glasgow, MT

Home | Current Version | Previous Version | Text Only | Print | Product List | Glossary On
Versions: 1 2 3 4 5 6 7 8 9 10 11 12 13 14 15 16 17 18 19 20 21 22 23 24 25 26 27 28 29 30 31 32 33 34 35 36 37 38 39 40 41 42 43 44 45 46 47 48 49 50
000
ASUS45 KGGW 221715
RWRGGW
HOURLY WEATHER ROUNDUP FOR NORTHEAST MONTANA
NATIONAL WEATHER SERVICE GLASGOW MONTANA
1100 AM MDT TUE JUL 22 2014

NOTE: "FAIR" INDICATES FEW OR NO CLOUDS BELOW 12,000 FEET WITH NO
SIGNIFICANT WEATHER AND/OR OBSTRUCTIONS TO VISISBILITY.

NORTHEAST MONTANA


CITY           SKY/WX    TMP DP  RH WIND       PRES   REMARKS
GLASGOW        SUNNY     80  55  42 N5        30.18R
PLENTYWOOD       N/A     69  61  75 NE6         N/A
WOLF POINT     SUNNY     79  56  45 E7        30.17S
JORDAN           N/A     82  55  39 E7        30.16F
WINNETT          N/A     70  60  70 N6          N/A
SIDNEY         SUNNY     81  63  54 SE5       30.19S
GLENDIVE       SUNNY     79  57  47 SE5       30.20R
MALTA            N/A     70  57  63 N7          N/A

FORT PECK REPORTS


CITY           SKY/WX    TMP DP  RH WIND       PRES   REMARKS
FORT PECK        N/A     79  57  46 N3          N/A
THE PINES        N/A     76  56  49 NE8         N/A

SOUTHEAST MONTANA


CITY           SKY/WX    TMP DP  RH WIND       PRES   REMARKS
BILLINGS       MOSUNNY   77  55  46 CALM      30.20R
MILES CITY     SUNNY     82  62  50 E5        30.16S
BAKER          MOSUNNY   84  55  36 SE8       30.22R
LIVINGSTON     SUNNY     78  47  33 S8        30.23F

CENTRAL MONTANA


CITY           SKY/WX    TMP DP  RH WIND       PRES   REMARKS
HAVRE          MOSUNNY   76  56  49 NE15      30.17S
LEWISTOWN      LGT RAIN  64  58  80 E9        30.26S
GREAT FALLS    PTSUNNY   73  53  49 SW8       30.19R
CUT BANK       PTSUNNY   67  54  63 SE8       30.19F
HELENA         MOSUNNY   69  54  58 N7        30.21F
BUTTE          SUNNY     70  51  51 CALM      30.28F
BOZEMAN        SUNNY     75  53  46 NE6       30.25S

WESTERN MONTANA


CITY           SKY/WX    TMP DP  RH WIND       PRES   REMARKS
MISSOULA       CLOUDY    66  44  45 SW9       30.18F
KALISPELL      NOT AVBL

NORTH DAKOTA


CITY           SKY/WX    TMP DP  RH WIND       PRES   REMARKS
WILLISTON      MOSUNNY   79  61  53 VRB7      30.18R
DICKINSON      MOSUNNY   72  64  76 E6        30.21R
MINOT          CLOUDY    73  61  65 VRB3      30.19R
BISMARCK       SUNNY     72  62  71 VRB5      30.20S

SOUTHERN SASKATCHEWAN


CITY           SKY/WX    TMP DP  RH WIND       PRES   REMARKS
REGINA         SUNNY     73  54  49 VRB2      30.22R
MOOSE JAW      MOSUNNY   70  57  64 E7        30.23R
ESTEVAN        PTSUNNY   72  59  64 E7        30.20R
SWIFT CURRENT  SUNNY     68  55  64 E6        30.22R



USA.gov is the U.S. government's official web portal to all federal, state and local government web resources and services.